sat.trackr.live / text

‹ back to catalog

STARLINK-34200

NORAD 64186 · 2025-113S

PAYLOAD ACTIVE UNKNOWN

§ Identity

Operator
Country
US
Launch date
2025-05-28
Launch site
AFETR
Launch vehicle
Mass (kg)
RCS (m²)

Purposes: comms

External: N2YO · Heavens-Above · Gunter

§ Orbital elements

Epoch: 2026-05-25T02:45:23.618016Z

Period
94.01 min
Inclination
53.1599°
Eccentricity
0.0001499
Mean motion
15.31715243 rev/d
Perigee alt
469.7 km
Apogee alt
471.7 km
Semi-major
6,848.8 km
B*
7.9789e-4
RAAN
95.6147°
Arg perigee
85.3421°
Mean anomaly
274.7751°
Rev number
5,677

§ Raw data

STARLINK-342001 64186U 25113S   26145.11485669  .00024487  00000+0  79789-3 0  99922 64186  53.1599  95.6147 0001499  85.3421 274.7751 15.31715243 56777

JSON: /api/v1/satellites/64186 · /tle

For live sub-satellite position, see the globe view (requires WebGL).

§ Visibility from observer

Set your observer location to see the next 7 days of passes ≥ 10°. The values pass through the URL so the page stays shareable.

No JS? Fill the form by hand. The geolocation button needs JavaScript.